[[{"header":{"parameterUnit":"m.s-1","parameterCategory":1,"la1":30.2991,"la2":30.254,"lo1":-89.0895,"lo2":-89.0444,"dy":0.0017,"dx":0.0017,"nx":28,"ny":28,"refTime":"2024-06-09T09:00:00:Z","depth":0,"parameterNumber":2,"parameterNumberName":"U-component_of_WINDS"},"data":[0,0,0,0,0,0,0,0,0,0,0,0,0,0,0,0,0,0,0,0,0,0,0,0,0,0,0,0,0,0,0,0,0,0,0,0,0,0,0,0,0,0,0,0,0,0,0,0,0,0,0,0,0,0,0,0,0,0,1.2316,1.2317,0,1.2357,1.2358,1.2358,1.2326,1.2324,1.2323,1.2321,1.2364,1.2366,1.2368,0,0,0,0,0,0,0,0,0,0,0,0,0,1.2207,1.2209,1.2316,1.2317,1.2317,1.2357,1.2358,1.2358,1.2326,1.2324,1.2322,1.2321,1.2363,1.2366,1.2368,0,0,0,0,0,0,0,0,0,0,0,0,0,1.2252,1.221,1.2316,1.2306,1.2305,1.2357,1.2358,1.2359,1.2326,1.2324,1.2322,1.232,1.2362,1.2365,1.2369,1.2433,0,0,1.238,1.2382,0,0,0,0,0,0,0,0,1.225,1.2256,1.2307,1.2307,1.2306,1.2334,1.2335,1.2384,1.2327,1.2318,1.2321,1.2319,1.2355,1.2359,1.2372,1.2435,1.2437,1.238,1.2383,1.2384,1.2385,0,0,0,0,0,0,0,1.2247,1.2254,1.2332,1.2307,1.2307,1.2298,1.2302,1.2344,1.2348,1.2319,1.2317,1.2322,1.2355,1.2368,1.2373,1.2438,1.238,1.2383,1.2386,1.2387,1.2553,1.2555,0,0,0,0,0,0,1.2245,1.2252,1.2331,1.2334,1.2272,1.2302,1.2307,1.2327,1.2348,1.2349,1.2324,1.232,1.2363,1.2368,1.2374,1.2448,1.2384,1.2387,1.239,1.255,1.2553,1.2556,0,0,0,0,0,0,1.2242,1.2252,1.2329,1.2292,1.2301,1.2306,1.233,1.2329,1.2343,1.2351,1.2352,1.2337,1.2362,1.2369,1.2418,1.2449,1.2389,1.2392,1.2548,1.2551,1.2554,1.2598,0,0,0,0,0,0,1.224,1.2251,1.2276,1.2293,1.2303,1.2373,1.2332,1.2332,1.2349,1.2345,1.2364,1.2365,1.2361,1.2413,1.2422,1.2453,1.2395,1.2545,1.2549,1.2553,1.2594,1.2603,1.261,0,0,0,0,0,1.2236,1.2288,1.2278,1.2288,1.2335,1.2375,1.2381,1.2376,1.2352,1.2376,1.2381,1.2364,1.2445,1.2418,1.2428,1.2461,1.2543,1.2548,1.2553,1.259,1.2601,1.261,0,0,0,0,0,0,1.2275,1.229,1.2279,1.2338,1.2356,1.237,1.2401,1.2388,1.2412,1.2407,1.2399,1.2404,1.2455,1.2463,1.2433,1.2523,1.249,1.2497,1.2515,1.2525,1.2533,1.2529,1.2398,0,0,0,0,0,1.2291,1.2323,1.2334,1.2385,1.2394,1.2396,1.2414,1.2407,1.2425,1.2433,1.2441,1.2459,1.2488,1.2507,1.2535,1.2596,1.2598,1.2623,1.2631,1.2638,1.2643,1.2673,1.2684,1.2572,1.2572,1.2572,0,0,1.2323,1.2335,1.2356,1.2393,1.2406,1.2438,1.2402,1.2439,1.2462,1.2438,1.2484,1.2492,1.2511,1.2565,1.259,1.2573,1.2675,1.2644,1.2649,1.2651,1.2679,1.269,1.2699,1.2575,1.2575,1.2574,0,0,1.2398,1.2412,1.2454,1.2467,1.2487,1.2488,1.2498,1.2514,1.2517,1.2564,1.2545,1.2573,1.2624,1.2638,1.2651,1.273,1.2714,1.2739,1.278,1.281,1.2819,1.2826,1.2852,1.2861,1.2745,1.2745,1.2746,0,1.2436,1.2484,1.2478,1.2514,1.253,1.251,1.2552,1.2565,1.2593,1.2604,1.2586,1.2647,1.2659,1.2715,1.2734,1.2747,1.2757,1.2736,1.2818,1.2826,1.2833,1.2857,1.2867,1.2748,1.2748,1.2748,1.2747,0,1.2528,1.2562,1.2594,1.262,1.264,1.2679,1.2678,1.2698,1.2691,1.2693,1.2739,1.2752,1.2781,1.2794,1.2787,1.2849,1.2838,1.2819,1.2786,1.2846,1.2868,1.2878,1.2752,1.2751,1.275,1.275,0,0,1.2628,1.265,1.2661,1.2672,1.2692,1.2717,1.2755,1.2783,1.2799,1.2819,1.2849,1.2892,1.2874,1.289,1.2884,1.291,1.2968,1.2888,1.2888,1.29,1.3034,1.3046,1.3057,1.2959,1.2961,1.2962,1.3031,0,1.2702,1.2767,1.2762,1.2824,1.2853,1.2834,1.2866,1.2881,1.2884,1.291,1.2913,1.2942,1.2918,1.2927,1.2952,1.2956,1.2995,1.2951,1.2985,1.2986,1.2978,1.3069,1.3082,1.3147,1.304,1.3042,1.3043,0,1.2796,1.2818,1.2882,1.2896,1.2908,1.2937,1.2961,1.2986,1.3002,1.3002,1.3019,1.3008,1.3045,1.3012,1.3062,1.3033,1.3046,1.305,1.3053,1.3054,1.3017,1.307,1.3168,1.3176,1.3057,1.3056,1.3055,0,1.2859,1.2905,1.2949,1.2959,1.2976,1.2997,1.3005,1.3019,1.3035,1.3056,1.3066,1.3092,1.3105,1.3124,1.312,1.3097,1.317,1.3138,1.317,1.317,1.3184,1.3183,1.3283,1.3197,1.3197,1.3197,1.3197,0,1.2941,1.298,1.2977,1.3004,1.3047,1.304,1.3083,1.3088,1.3101,1.3127,1.3113,1.3138,1.3133,1.3158,1.3155,1.3195,1.3202,1.3202,1.32,1.3202,1.3202,1.3209,1.3204,1.3199,1.3199,1.3198,1.3198,0,1.3017,1.3018,1.3063,1.3076,1.3079,1.311,1.312,1.3145,1.3147,1.318,1.3188,1.319,1.3219,1.3217,1.325,1.3248,1.3296,1.3291,1.329,1.3288,1.3319,1.3315,1.3426,1.3439,1.3347,1.3348,1.3349,0,1.3068,1.3098,1.3113,1.3129,1.3138,1.3166,1.3182,1.3176,1.3193,1.3213,1.3235,1.3262,1.3283,1.3329,1.3333,1.3357,1.3351,1.3388,1.3354,1.3354,1.3348,1.3345,1.3347,1.3393,1.3394,1.3395,1.3396,0,1.3157,1.3155,1.3179,1.3202,1.3221,1.324,1.3256,1.3271,1.3267,1.3287,1.3315,1.3331,1.3364,1.339,1.3413,1.342,1.3407,1.3407,1.3415,1.3416,1.3413,1.3412,1.3306,1.3404,1.3403,1.3402,1.3402,1.3402,1.322,1.3244,1.3258,1.3285,1.3296,1.3312,1.3335,1.3339,1.3363,1.3388,1.3384,1.3415,1.3429,1.3458,1.3468,1.3491,1.3478,1.3491,1.3493,1.3496,1.3498,1.3411,1.3496,1.3496,1.3496,1.3495,1.3495,0,1.3305,1.3313,1.3338,1.3361,1.3381,1.3367,1.3385,1.3402,1.343,1.3444,1.3465,1.3496,1.3521,1.3528,1.3551,1.3569,1.3563,1.3575,1.3572,1.3574,1.351,1.3499,1.3579,1.3579,1.3579,1.3579,1.3579,1.3579,1.3352,1.3392,1.3391,1.3436,1.3444,1.3474,1.3485,1.3498,1.3509,1.3545,1.3565,1.3569,1.358,1.3604,1.3626,1.3627,1.3635,1.3649,1.3647,1.3587,1.3579,1.3571,1.356,1.3651,1.3652,1.3709,1.3709,1.371]},{"header":{"parameterUnit":"m.s-1","parameterCategory":1,"la1":30.2991,"la2":30.254,"lo1":-89.0895,"lo2":-89.0444,"dy":0.0017,"dx":0.0017,"nx":28,"ny":28,"refTime":"2024-06-09T09:00:00:Z","depth":0,"parameterNumber":3,"parameterNumberName":"V-component_of_WINDS"},"data":[0,0,0,0,0,0,0,0,0,0,0,0,0,0,0,0,0,0,0,0,0,0,0,0,0,0,0,0,0,0,0,0,0,0,0,0,0,0,0,0,0,0,0,0,0,0,0,0,0,0,0,0,0,0,0,0,0,0,3.8627,3.8628,0,3.8658,3.8658,3.8658,3.8579,3.8577,3.8575,3.8572,3.8602,3.8605,3.8608,0,0,0,0,0,0,0,0,0,0,0,0,0,3.8498,3.8501,3.8627,3.8628,3.8628,3.8658,3.8658,3.8658,3.858,3.8577,3.8574,3.8571,3.8601,3.8604,3.8608,0,0,0,0,0,0,0,0,0,0,0,0,0,3.8544,3.8502,3.8627,3.8593,3.859,3.8657,3.8658,3.8658,3.8581,3.8577,3.8573,3.857,3.8599,3.8604,3.8608,3.8711,0,0,3.8623,3.8625,0,0,0,0,0,0,0,0,3.8541,3.8549,3.8597,3.8595,3.8592,3.8611,3.8623,3.8676,3.8581,3.8584,3.8572,3.8568,3.8608,3.8611,3.8625,3.8712,3.8713,3.8623,3.8626,3.8628,3.8629,0,0,0,0,0,0,0,3.8538,3.8547,3.8639,3.8598,3.8595,3.8574,3.8577,3.8633,3.8616,3.8583,3.8578,3.8583,3.8605,3.8621,3.8625,3.8714,3.8623,3.8627,3.863,3.8632,3.8882,3.8886,0,0,0,0,0,0,3.854,3.8545,3.8638,3.864,3.8557,3.8579,3.8582,3.8609,3.8615,3.8613,3.8586,3.8579,3.8615,3.862,3.8626,3.8743,3.8628,3.8632,3.8635,3.8878,3.8883,3.8887,0,0,0,0,0,0,3.8537,3.8549,3.8637,3.8591,3.86,3.8586,3.8616,3.8611,3.8626,3.8617,3.8613,3.8605,3.8612,3.8619,3.8689,3.8743,3.8634,3.8638,3.8874,3.888,3.8885,3.8981,0,0,0,0,0,0,3.8534,3.8549,3.8588,3.8592,3.8603,3.8702,3.8619,3.8614,3.8635,3.8626,3.8634,3.8631,3.861,3.8683,3.8694,3.8748,3.8642,3.8869,3.8876,3.8883,3.8973,3.8989,3.9003,0,0,0,0,0,3.853,3.8615,3.8591,3.8603,3.8653,3.8705,3.8711,3.8685,3.864,3.8678,3.8672,3.8631,3.8736,3.8691,3.8703,3.8758,3.8865,3.8874,3.8883,3.8966,3.8986,3.9003,0,0,0,0,0,0,3.8617,3.8615,3.8588,3.8677,3.8692,3.8691,3.874,3.8707,3.8735,3.8725,3.8691,3.8693,3.8769,3.8771,3.8721,3.8856,3.8793,3.8804,3.8852,3.8871,3.8886,3.8883,3.8646,0,0,0,0,0,3.8647,3.8691,3.8685,3.8764,3.8773,3.8755,3.8777,3.8755,3.8769,3.8775,3.8773,3.8787,3.8823,3.8847,3.888,3.8973,3.8972,3.9017,3.9032,3.9044,3.9054,3.91,3.9119,3.8916,3.8916,3.8916,0,0,3.8709,3.8713,3.8742,3.8782,3.8791,3.8834,3.8761,3.8812,3.8843,3.8782,3.8847,3.8847,3.886,3.8941,3.8977,3.8945,3.911,3.9056,3.9066,3.9069,3.9111,3.9131,3.9148,3.8922,3.8921,3.892,0,0,3.8844,3.8852,3.8917,3.8927,3.8941,3.8928,3.8944,3.8948,3.8945,3.901,3.8964,3.9001,3.9064,3.9074,3.9088,3.9224,3.9186,3.9235,3.9314,3.936,3.9376,3.9389,3.9435,3.9452,3.9245,3.9246,3.9246,0,3.8919,3.8984,3.8955,3.9007,3.9024,3.8971,3.9035,3.9046,3.907,3.9082,3.9047,3.9122,3.9128,3.9209,3.9242,3.9256,3.927,3.9233,3.9376,3.9389,3.9402,3.9445,3.9463,3.9251,3.9251,3.925,3.925,0,3.9073,3.9119,3.917,3.9193,3.9216,3.9275,3.9253,3.928,3.9256,3.9246,3.9311,3.9316,3.9347,3.9365,3.9342,3.9442,3.9422,3.9382,3.9317,3.9428,3.9467,3.9484,3.9259,3.9257,3.9256,3.9254,0,0,3.9265,3.927,3.9288,3.9297,3.9307,3.9341,3.9396,3.9426,3.9448,3.9467,3.951,3.9563,3.9525,3.9541,3.9519,3.9559,3.9662,3.9513,3.9513,3.9539,3.9769,3.9798,3.9817,3.9638,3.9641,3.9644,3.9767,0,3.9395,3.9489,3.9463,3.9556,3.9596,3.9545,3.9592,3.9602,3.9595,3.9627,3.9618,3.9655,3.9604,3.9612,3.965,3.9642,3.9708,3.9633,3.9676,3.9678,3.9672,3.9839,3.9869,3.9986,3.9783,3.9785,3.9787,0,3.956,3.9583,3.968,3.9681,3.9696,3.974,3.9763,3.9795,3.9805,3.9796,3.9813,3.9782,3.9833,3.977,3.9839,3.9789,3.9805,3.9804,3.9808,3.9809,3.9738,3.9842,4.0023,4.0039,3.9812,3.981,3.9808,0,3.9686,3.9742,3.9806,3.9815,3.9818,3.9849,3.9852,3.9858,3.9877,3.9898,3.9909,3.9936,3.995,3.9971,3.9947,3.9904,4.002,3.9955,4.0012,4.0013,4.0037,4.0036,4.022,4.0052,4.0052,4.0051,4.0051,0,3.9833,3.9894,3.9862,3.9901,3.9967,3.9936,4.0001,3.9998,4.0003,4.004,3.9998,4.0033,4.0001,4.0032,4.0014,4.0073,4.0081,4.0073,4.0068,4.0076,4.0077,4.0085,4.0075,4.0056,4.0055,4.0054,4.0053,0,3.9985,3.9966,4.0032,4.0029,4.0029,4.0078,4.0074,4.011,4.0098,4.0145,4.0154,4.0136,4.0171,4.015,4.0186,4.0173,4.0249,4.0233,4.0246,4.024,4.0298,4.0292,4.0493,4.0516,4.0335,4.0337,4.0338,0,4.0079,4.0124,4.0125,4.0146,4.0151,4.0186,4.0205,4.0175,4.0196,4.0209,4.0242,4.0274,4.0297,4.0355,4.0344,4.0371,4.0354,4.0422,4.0358,4.0364,4.0352,4.0348,4.0351,4.0435,4.0437,4.0439,4.044,0,4.0246,4.0234,4.0262,4.0287,4.031,4.0328,4.0342,4.0362,4.0332,4.0357,4.0392,4.041,4.0445,4.0476,4.0498,4.0499,4.0464,4.0461,4.0475,4.0483,4.0487,4.0483,4.0279,4.0456,4.0454,4.0453,4.0452,4.0452,4.037,4.0406,4.0412,4.0444,4.0451,4.0465,4.0497,4.0489,4.0518,4.0544,4.0525,4.0565,4.0572,4.0597,4.0603,4.0633,4.0606,4.0627,4.0632,4.0637,4.0643,4.0484,4.0638,4.0637,4.0637,4.0636,4.0636,0,4.0533,4.0533,4.0563,4.0584,4.0608,4.0573,4.0587,4.0609,4.0645,4.0654,4.0677,4.0716,4.0745,4.0737,4.0762,4.0788,4.0772,4.0795,4.0792,4.0792,4.0668,4.0652,4.0807,4.0807,4.0807,4.0807,4.0807,4.0807,4.0621,4.0679,4.0667,4.0728,4.0728,4.0767,4.0777,4.0789,4.0795,4.084,4.0864,4.0858,4.0859,4.0884,4.0909,4.0905,4.0915,4.0944,4.0935,4.0819,4.0802,4.0785,4.077,4.0947,4.0947,4.1056,4.1057,4.1058]}]]